This demonstration page uses our WeatherBlox Daily Observations layout. Learn more.

Left ArrowRight Arrow

30.21309, -93.2044

Hourly Observations for February 14, 2022

Temp ( °F °C ) Dew Point ( °F °C ) Humidity (%) Winds ( mph kmh ) Pressure ( in mb ) Visibility ( mi km ) Precip ( " mm )
12:15 am 00:15 Clear 37 2.5 30 -1.3 76 76 Calm 30.40 1029 10 16 0.00 0.00
12:35 am 00:35 Clear 35 1.8 29 -1.4 80 80 Calm 30.39 1029 10 16 0.00 0.00
12:55 am 00:55 Clear 36 2.3 29 -1.7 75 75 Calm 30.39 1029 10 16 0.00 0.00
1:15 am 01:15 Clear 38 3.2 30 -1.2 73 73 Calm 30.39 1029 10 16 0.00 0.00
1:35 am 01:35 Clear 35 1.7 29 -1.6 79 79 Calm 30.39 1029 10 16 0.00 0.00
1:55 am 01:55 Clear 35 1.4 28 -2 78 78 Calm 30.38 1029 10 16 0.00 0.00
2:15 am 02:15 Clear 37 2.6 29 -1.6 74 74 Calm 30.37 1028 10 16 0.00 0.00
2:35 am 02:35 Clear 35 1.5 29 -1.7 80 80 Calm 30.37 1028 10 16 0.00 0.00
2:55 am 02:55 Clear 35 1.7 29 -1.8 78 78 Calm 30.37 1028 10 16 0.00 0.00
3:15 am 03:15 Clear 37 2.5 29 -1.5 75 75 Calm 30.37 1028 10 16 0.00 0.00
3:35 am 03:35 Clear 35 1.6 29 -1.4 81 81 Calm 30.37 1028 10 16 0.00 0.00
3:55 am 03:55 Clear 33 0.6 30 -1.2 88 88 Calm 30.37 1028 10 16 0.00 0.00
4:15 am 04:15 Clear 32 0.2 30 -1.3 90 90 WSW 3 6 30.37 1028 10 16 0.00 0.00
4:35 am 04:35 Clear 34 0.9 31 -0.8 89 89 WSW 3 6 30.37 1028 10 16 0.00 0.00
4:55 am 04:55 Clear 33 0.7 30 -1.1 88 88 Calm 30.37 1028 10 16 0.00 0.00
5:15 am 05:15 Clear 38 3.3 34 0.9 84 84 Calm 30.38 1029 10 16 0.00 0.00
5:35 am 05:35 Clear 34 1.3 32 -0.2 90 90 Calm 30.38 1029 10 16 0.00 0.00
6:00 am 06:00 Mostly Clear 36 2 34 1 93 93 Calm 30.39 1029 10 16 0.00 0.00
6:55 am 06:55 Mostly Sunny 34 1 32 0 93 93 Calm 30.40 1029 10 16 0.00 0.00
7:55 am 07:55 Mostly Sunny 37 3 36 2 93 93 Calm 30.42 1030 10 16 0.00 0.00
8:55 am 08:55 Mostly Sunny 52 11 41 5 67 67 Calm 30.43 1030 10 16 0.00 0.00
9:53 am 09:53 Mostly Sunny 55 13 37 3 51 51 WNW 7 11 30.43 1030 10 16 0.00 0.00
10:54 am 10:54 Mostly Sunny 61 16 34 1 36 36 WNW 5 7 30.43 1030 10 16 0.00 0.00
11:52 am 11:52 Mostly Sunny 63 17 32 0 32 32 WSW 7 11 30.40 1029 10 16 0.00 0.00
12:46 pm 12:46 Mostly Sunny 66 19 28 -2 24 24 WSW 8 13 30.37 1028 10 16 0.00 0.00
1:53 pm 13:53 Mostly Sunny 66 19 27 -3 22 22 Calm 30.34 1027 10 16 0.00 0.00
2:52 pm 14:52 Mostly Sunny 64 18 27 -3 24 24 SSW 13 20 30.32 1027 10 16 0.00 0.00
3:50 pm 15:50 Mostly Sunny 64 18 34 1 32 32 SW 14 22 30.32 1027 10 16 0.00 0.00
4:50 pm 16:50 Mostly Sunny 63 17 30 -1 30 30 SW 14 22 30.32 1027 10 16 0.00 0.00
5:47 pm 17:47 Mostly Sunny 57 14 37 3 48 48 SSW 14 22 30.32 1027 10 16 0.00 0.00
6:50 pm 18:50 Mostly Clear 54 12 41 5 63 63 SSW 12 19 30.34 1027 10 16 0.00 0.00
7:55 pm 19:55 Mostly Clear 45 7 39 4 81 81 SSW 12 19 30.35 1028 10 16 0.00 0.00
8:55 pm 20:55 Mostly Clear 39 4 37 3 93 93 SSE 7 11 30.35 1028 10 16 0.00 0.00
9:55 pm 21:55 Mostly Clear 39 4 37 3 93 93 SSE 3 6 30.36 1028 10 16 0.00 0.00
10:15 pm 22:15 Clear 41 4.9 39 4 94 94 S 5 7 30.36 1028 10 16 0.00 0.00
10:35 pm 22:35 Clear 41 4.9 39 3.9 93 93 SSE 5 7 30.36 1028 10 16 0.00 0.00
10:55 pm 22:55 Clear with Mist and Fog 40 4.7 39 3.9 95 95 SSE 3 6 30.36 1028 5 8 0.00 0.00
11:15 pm 23:15 Clear with Mist and Fog 40 4.7 39 3.9 95 95 SSE 3 6 30.35 1028 7 11 0.00 0.00
11:35 pm 23:35 Clear with Mist and Fog 41 5.2 40 4.4 95 95 S 3 6 30.35 1028 4 6 0.00 0.00
11:55 pm 23:55 Clear with Mist and Fog 42 5.6 41 4.8 95 95 Calm 30.34 1027 7 11 0.00 0.00

Powered by AerisWeather